Location: Pomona Islander Mobile Home Park
(34.0464°N, 117.8164°W)
Time: 03:56:30
(UTC+00:00)

Daily predictions for brighter satellites

Satellite Brightness Start Highest point End
(mag) Time Altitude Azimuth Time Altitude Azimuth Time Altitude Azimuth
BREEZE-M R/B 3.3 00:52:49 10° NW 00:56:27 89° NNE 01:05:32 10° SE
Cosmos 1939 Rocket 3.1 01:00:47 10° SSE 01:04:47 53° ENE 01:08:48 10° N
Nadezhda 4 Rocket 4.1 00:58:27 10° N 01:04:48 83° E 01:11:08 10° S
Cosmos 1812 4.1 01:03:49 10° SE 01:06:42 20° E 01:09:35 10° NE
USA 276 3.5 01:08:07 10° NNW 01:10:36 21° NNE 01:13:05 10° E
CZ-4C R/B 4.2 01:08:15 10° N 01:13:31 20° NE 01:19:15 10° E
ATLAS CENTAUR R/B 4.4 01:01:28 10° SW 01:14:14 49° NW 01:19:27 10° NNE
H-2A R/B 2.7 01:09:57 10° SE 01:14:30 31° ENE 01:18:58 10° N
COSMO-SKYMED 1 3.5 01:13:55 10° NE 01:17:40 28° E 01:21:24 10° SSE
Cosmos 1092 Rocket 4.1 01:13:42 10° N 01:20:00 62° E 01:26:13 10° SSE
FengYun 1-2 T 4.3 01:15:58 10° SSE 01:21:35 87° WSW 01:27:10 10° NNW
Cosmos 1656 3.9 01:16:42 10° NNW 01:22:15 77° WSW 01:27:52 10° SSE
Cosmos 1633 Rocket 4.4 01:24:27 10° NNE 01:27:36 19° ENE 01:30:45 10° ESE
Cosmos 1602 3.7 01:25:22 10° N 01:29:12 64° E 01:33:01 10° SSE
Cosmos 841 Rocket 3.5 01:24:55 10° SSW 01:30:05 88° WNW 01:35:16 10° NNE
Cosmos 1782 2.7 01:26:13 10° S 01:30:12 84° E 01:34:13 10° N
Aurora 2 Rocket 4.5 01:28:16 10° WSW 01:32:29 31° S 01:38:10 10° ESE
Okean O Rocket 2.7 01:30:18 10° ESE 01:33:50 24° ENE 01:37:25 10° NNE
Cosmos 1697 Rocket 2.6 01:29:36 10° NNW 01:35:11 64° ENE 01:40:44 10° SSE
Cosmos 1151 Rocket 3.2 01:32:23 10° SSE 01:36:30 47° E 01:40:40 10° NNE
Cosmos 1980 Rocket 2.8 01:34:03 10° N 01:39:10 33° ENE 01:44:12 10° SE
Cosmos 2369 4.0 01:34:07 10° N 01:39:35 44° ENE 01:45:00 10° SE
Cosmos 1937 Rocket 3.5 01:34:57 10° N 01:40:14 61° ENE 01:45:27 10° SSE
NOAA 6 4.4 01:35:45 10° S 01:40:51 70° WSW 01:46:00 10° NNW
Cosmos 1627 Rocket 4.4 01:34:46 10° N 01:40:56 78° E 01:47:02 10° S
Cosmos 2279 Rocket 4.0 01:35:01 10° S 01:41:05 58° E 01:47:10 10° NNE
Cosmos 1743 Rocket 4.5 01:37:13 10° NNW 01:41:24 51° W 01:45:35 10° SSW
CZ-2D R/B 3.1 01:40:30 10° SSE 01:44:19 72° ENE 01:48:08 10° N
Cosmos 2082 Rocket 2.4 01:40:57 10° SSW 01:46:37 74° WNW 01:52:18 10° NNE
CZ-2C R/B 2.2 01:47:49 10° SW 01:51:43 36° SSE 01:53:47 21° ESE
Cosmos 1328 Rocket 3.7 01:47:36 10° SSE 01:51:53 50° E 01:56:10 10° NNE
CZ-4B DEB 4.4 01:47:17 10° S 01:52:47 75° WSW 01:58:18 10° NNW
Cosmos 1666 Rocket 3.8 01:48:40 10° N 01:52:56 47° E 01:57:10 10° SSE
Cosmos 372 Rocket 4.1 01:48:21 10° N 01:53:26 49° ENE 01:58:29 10° SE
Meteor 2-21 4.4 01:51:02 10° N 01:57:08 88° W 02:03:09 10° S
Cosmos 1500 3.3 01:58:09 10° N 02:01:53 74° W 02:05:34 10° S
Cosmos 2278 4.1 01:58:35 10° N 02:03:53 38° ENE 02:09:09 10° SE
SKYMED 2 3.7 02:01:28 10° N 02:05:48 74° WNW 02:10:06 10° SSW
Landsat 5 3.2 02:03:11 13° NNE 02:06:50 78° ESE 02:10:45 10° S
ARGOS 3.1 02:02:02 10° SSE 02:07:20 61° ENE 02:12:41 10° N
SL-08 RB Rocket 4.0 02:06:06 10° SE 02:10:28 42° ENE 02:14:50 10° N
ATLAS 5 CENTAUR R/B 4.0 02:08:35 10° SW 02:12:51 13° S 02:15:36 10° SSE
COSMOS 2455 4.2 02:07:40 10° WSW 02:13:10 36° WNW 02:18:41 10° N
Meteor 2-6 Rocket 4.2 02:11:37 10° S 02:17:28 88° W 02:23:10 10° N
Meteor 2-15 4.3 02:12:14 10° S 02:18:19 73° E 02:24:24 10° N
GPS 2-04 Rocket1 2.6 02:16:17 10° WNW 02:20:25 80° N 02:21:03 61° E
DEBRIS 2.2 02:20:21 10° SW 02:22:33 83° NW 02:22:37 81° N
USA 229 DEB 4.4 02:15:09 10° NW 02:22:37 65° WSW 02:30:25 10° SSE
USA 229 4.4 02:15:14 10° NW 02:22:42 65° WSW 02:30:30 10° SSE
DMSP B5D2-2 4.1 02:21:26 32° NE 02:23:41 56° E 02:28:48 10° S
H-2A R/B 3.8 02:26:39 20° SSE 02:26:39 20° SSE 02:28:18 10° SSE
Cosmos 1655 Rocket 4.1 02:19:29 10° N 02:25:44 53° E 02:31:53 10° SSE
CZ-4C R/B 3.0 02:25:26 64° NNW 02:25:48 73° WNW 02:29:07 10° SSW
CZ-4B R/B 3.4 02:20:44 10° S 02:26:11 71° WSW 02:31:34 10° NNW
deb Chang Zheng 4 3.9 02:24:27 10° S 02:28:41 63° WSW 02:32:58 10° NNW
USA 234 3.3 02:24:10 10° SE 02:30:42 80° SW 02:37:17 10° NW
Cosmos 1666 3.2 02:27:48 10° NNW 02:31:28 57° W 02:35:05 10° S
Cosmos 1515 Rocket 3.4 02:28:49 10° S 02:33:15 81° E 02:34:03 59° NNE
NOSS 3-3 (A) 4.5 02:29:53 10° S 02:33:54 33° SE 02:33:54 33° SE
CZ-2C R/B 3.8 02:30:11 10° N 02:35:00 40° WNW 02:39:48 10° SW
Meteor 1-10 Rocket 4.3 02:31:03 10° S 02:36:53 84° W 02:41:51 14° N
X-37B 2.7 02:36:34 10° SW 02:37:48 23° SW 02:37:48 23° SW
USA 276 4.3 02:43:51 10° WNW 02:45:51 26° WSW 02:45:51 26° WSW
Cosmos 836 Rocket 4.4 02:41:59 10° S 02:47:13 74° ESE 02:47:13 74° ESE
Feng Yun 1-1 Rocket 4.3 02:42:46 10° SSE 02:48:42 90° WSW 02:54:37 10° NNW
Cosmos 1867 3.7 02:46:45 10° SSW 02:51:23 58° SSE 02:51:23 58° SSE
H-2A R/B 4.2 02:49:35 10° SSW 02:53:51 25° W 02:58:04 10° NW
APEX 4.2 02:50:22 10° SW 02:54:07 47° W 02:54:07 47° W
Cosmos 921 Rocket 4.4 02:56:40 10° SW 03:00:27 34° WNW 03:01:06 32° NW
CZ-4C R/B 3.0 02:55:18 10° NNW 03:03:04 82° ENE 03:07:13 35° SE
USA 32 4.3 03:00:52 10° SSW 03:06:02 66° W 03:06:22 64° WNW
Okean O Rocket 3.8 03:06:24 10° SSW 03:10:02 25° W 03:13:44 10° NW
Cosmos 1980 Rocket 4.1 03:18:16 10° NW 03:22:58 27° WSW 03:27:37 10° SSW
CZ-2C R/B 4.1 03:26:59 10° W 03:27:57 17° W 03:27:57 17° W
ATLAS 3B CENTAUR R/B 4.2 03:44:13 10° W 04:03:05 69° S 04:04:12 67° SSE
Cosmos 2369 Rocket 3.3 11:47:55 39° E 11:47:55 39° E 11:52:55 10° NE
